[[{"header":{"parameterUnit":"m.s-1","parameterCategory":1,"la1":30.2991,"la2":30.254,"lo1":-89.0895,"lo2":-89.0444,"dy":0.0017,"dx":0.0017,"nx":28,"ny":28,"refTime":"2025-07-07T21:00:00:Z","depth":0,"parameterNumber":2,"parameterNumberName":"U-component_of_WINDS"},"data":[0,0,0,0,0,0,0,0,0,0,0,0,0,0,0,0,0,0,0,0,0,0,0,0,0,0,0,0,0,0,0,0,0,0,0,0,0,0,0,0,0,0,0,0,0,0,0,0,0,0,0,0,0,0,0,0,0,0,3.6306,3.6308,0,3.6484,3.6486,3.6488,3.6447,3.6444,3.6441,3.6437,3.6624,3.6632,3.664,0,0,0,0,0,0,0,0,0,0,0,0,0,3.5931,3.5938,3.6306,3.6308,3.631,3.6484,3.6486,3.6489,3.6448,3.6444,3.644,3.6436,3.6621,3.6631,3.6641,0,0,0,0,0,0,0,0,0,0,0,0,0,3.61,3.5941,3.6305,3.6311,3.6313,3.6483,3.6486,3.649,3.6449,3.6444,3.6439,3.6434,3.6618,3.663,3.6642,3.682,0,0,3.6679,3.6685,0,0,0,0,0,0,0,0,3.6091,3.6114,3.6308,3.6311,3.6313,3.6438,3.6423,3.66,3.645,3.6397,3.6437,3.6431,3.6567,3.6583,3.6628,3.6828,3.6836,3.6681,3.6688,3.6693,3.6697,0,0,0,0,0,0,0,3.6079,3.6106,3.6376,3.631,3.6314,3.6305,3.6323,3.6456,3.6509,3.6402,3.6399,3.6421,3.6567,3.6616,3.6632,3.6839,3.668,3.6691,3.6699,3.6703,3.7192,3.7198,0,0,0,0,0,0,3.6065,3.6097,3.6371,3.6382,3.6187,3.6316,3.6336,3.6403,3.6507,3.6518,3.6425,3.6418,3.6598,3.6617,3.6638,3.6851,3.6693,3.6705,3.6712,3.7187,3.7194,3.72,0,0,0,0,0,0,3.6057,3.609,3.6364,3.6239,3.6273,3.6327,3.6403,3.641,3.6458,3.6524,3.6534,3.6465,3.6594,3.6621,3.6774,3.6857,3.671,3.6721,3.718,3.7189,3.7197,3.728,0,0,0,0,0,0,3.6046,3.6087,3.6155,3.624,3.628,3.6496,3.6409,3.6417,3.6479,3.6472,3.6564,3.6575,3.6592,3.6756,3.6786,3.6871,3.6731,3.7173,3.7184,3.7194,3.727,3.729,3.7307,0,0,0,0,0,3.6033,3.6172,3.6158,3.6192,3.6365,3.6501,3.6524,3.654,3.6486,3.6554,3.6596,3.6572,3.6843,3.6772,3.6806,3.6896,3.7168,3.7181,3.7193,3.7261,3.7286,3.7307,0,0,0,0,0,0,3.6097,3.6184,3.6169,3.634,3.6413,3.6494,3.6581,3.6566,3.6657,3.6646,3.6664,3.6685,3.6841,3.6884,3.6803,3.7072,3.6998,3.7018,3.7038,3.7062,3.708,3.7067,3.6741,0,0,0,0,0,3.613,3.6232,3.6303,3.6447,3.6484,3.6526,3.6586,3.6592,3.6669,3.67,3.6754,3.6831,3.6933,3.7,3.7098,3.7276,3.7295,3.7354,3.7373,3.7388,3.7405,3.7501,3.7527,3.7242,3.7242,3.7241,0,0,3.6202,3.6261,3.6325,3.6462,3.6519,3.6624,3.6553,3.6668,3.6747,3.6718,3.6865,3.6907,3.6994,3.716,3.7235,3.72,3.7488,3.7404,3.7416,3.7425,3.7517,3.7543,3.7567,3.725,3.7249,3.7247,0,0,3.6385,3.6441,3.6566,3.6624,3.6711,3.6738,3.6768,3.685,3.6877,3.7024,3.7004,3.7098,3.7275,3.7336,3.7391,3.7595,3.7576,3.7627,3.7725,3.7818,3.784,3.786,3.7932,3.7957,3.7644,3.7644,3.7644,0,3.6462,3.662,3.6633,3.6749,3.6809,3.6786,3.6913,3.6969,3.7084,3.7127,3.7085,3.7304,3.7361,3.754,3.7589,3.7635,3.7669,3.7616,3.7836,3.7856,3.7875,3.7943,3.797,3.7649,3.7649,3.7648,3.7648,0,3.671,3.682,3.6911,3.702,3.709,3.7212,3.7243,3.7313,3.7312,3.7343,3.7493,3.756,3.767,3.7713,3.7715,3.7892,3.7867,3.7831,3.7757,3.7907,3.7972,3.7998,3.7657,3.7655,3.7654,3.7652,0,0,3.694,3.7053,3.7086,3.7134,3.7228,3.7313,3.7433,3.7538,3.7597,3.7677,3.7778,3.7926,3.7892,3.7954,3.7963,3.8044,3.82,3.7998,3.8,3.8032,3.8398,3.8424,3.8454,3.8187,3.8192,3.8196,3.839,0,3.713,3.734,3.7354,3.7544,3.7644,3.7623,3.7727,3.7795,3.7827,3.7918,3.7953,3.8058,3.8006,3.8043,3.8123,3.8164,3.8273,3.815,3.8281,3.8286,3.8259,3.8488,3.8517,3.8697,3.8416,3.842,3.8423,0,3.7381,3.7466,3.7665,3.7742,3.7785,3.7878,3.7975,3.8062,3.8139,3.8156,3.8224,3.822,3.8343,3.8265,3.8434,3.835,3.8404,3.8432,3.844,3.8452,3.8363,3.8506,3.8755,3.8781,3.8463,3.846,3.8457,0,3.7527,3.7691,3.7831,3.7873,3.7967,3.8033,3.8075,3.8147,3.8209,3.8294,3.8335,3.8434,3.8488,3.8565,3.8588,3.8529,3.8757,3.868,3.8774,3.8774,3.8823,3.882,3.9083,3.886,3.8859,3.8859,3.8858,0,3.7738,3.786,3.7897,3.7983,3.8119,3.8134,3.8269,3.8307,3.8371,3.8464,3.8453,3.854,3.8566,3.8658,3.8677,3.8814,3.8839,3.8856,3.886,3.8857,3.8855,3.8893,3.888,3.8866,3.8864,3.8863,3.8862,0,3.7924,3.7954,3.8104,3.8179,3.8201,3.8298,3.8363,3.8446,3.8475,3.8593,3.8621,3.8668,3.8776,3.8806,3.8937,3.8949,3.9109,3.9102,3.9083,3.9083,3.9174,3.9165,3.9471,3.9511,3.9262,3.9265,3.9267,0,3.8056,3.8149,3.8234,3.8294,3.8339,3.8437,3.8499,3.8517,3.8583,3.8677,3.8748,3.8854,3.894,3.9114,3.916,3.9259,3.9253,3.9353,3.9268,3.9262,3.9253,3.9247,3.9256,3.9369,3.9372,3.9374,3.9376,0,3.8287,3.8297,3.8386,3.8481,3.8556,3.8632,3.8705,3.8755,3.8783,3.8858,3.8967,3.9033,3.9165,3.927,3.937,3.9415,3.9401,3.9402,3.9429,3.9427,3.9411,3.942,3.9126,3.9395,3.9393,3.9392,3.9391,3.939,3.845,3.8531,3.8602,3.8702,3.8758,3.8826,3.8906,3.8945,3.9036,3.9143,3.9148,3.9266,3.934,3.9472,3.9522,3.9615,3.9585,3.9625,3.9634,3.9643,3.965,3.9397,3.9633,3.9633,3.9632,3.9632,3.9632,0,3.8679,3.8723,3.8815,3.8916,3.8994,3.8972,3.9051,3.9119,3.9222,3.9291,3.9375,3.9499,3.9601,3.9654,3.9755,3.9819,3.9815,3.9845,3.984,3.985,3.9672,3.9638,3.9847,3.9847,3.9847,3.9847,3.9846,3.9846,3.8808,3.8943,3.896,3.9123,3.9167,3.9281,3.9328,3.939,3.9445,3.9584,3.9667,3.97,3.9763,3.9868,3.996,3.9973,4.001,4.0044,4.0053,3.9885,3.9863,3.9842,3.981,4.0052,4.0052,4.0224,4.0226,4.0227]},{"header":{"parameterUnit":"m.s-1","parameterCategory":1,"la1":30.2991,"la2":30.254,"lo1":-89.0895,"lo2":-89.0444,"dy":0.0017,"dx":0.0017,"nx":28,"ny":28,"refTime":"2025-07-07T21:00:00:Z","depth":0,"parameterNumber":3,"parameterNumberName":"V-component_of_WINDS"},"data":[0,0,0,0,0,0,0,0,0,0,0,0,0,0,0,0,0,0,0,0,0,0,0,0,0,0,0,0,0,0,0,0,0,0,0,0,0,0,0,0,0,0,0,0,0,0,0,0,0,0,0,0,0,0,0,0,0,0,1.8449,1.845,0,1.8457,1.8458,1.8458,1.839,1.8389,1.8387,1.8385,1.8395,1.8397,1.8399,0,0,0,0,0,0,0,0,0,0,0,0,0,1.8377,1.8379,1.8449,1.845,1.845,1.8457,1.8458,1.8458,1.8391,1.8389,1.8386,1.8384,1.8395,1.8397,1.8399,0,0,0,0,0,0,0,0,0,0,0,0,0,1.8399,1.8379,1.8449,1.8417,1.8414,1.8457,1.8458,1.8458,1.8391,1.8388,1.8386,1.8383,1.8394,1.8397,1.84,1.8475,0,0,1.8409,1.841,0,0,0,0,0,0,0,0,1.8398,1.8402,1.8422,1.8419,1.8416,1.842,1.8436,1.8463,1.8392,1.84,1.8385,1.8382,1.8406,1.8408,1.8415,1.8475,1.8476,1.8409,1.8411,1.8412,1.8413,0,0,0,0,0,0,0,1.8397,1.8401,1.8453,1.8422,1.8419,1.8403,1.8403,1.8441,1.8419,1.8399,1.8394,1.8396,1.8404,1.8413,1.8415,1.8476,1.8409,1.8412,1.8414,1.8415,1.8596,1.8599,0,0,0,0,0,0,1.8399,1.84,1.8452,1.8453,1.84,1.8406,1.8406,1.8422,1.8418,1.8415,1.8398,1.8393,1.8409,1.8412,1.8415,1.8502,1.8412,1.8415,1.8417,1.8593,1.8597,1.86,0,0,0,0,0,0,1.8398,1.8404,1.8452,1.8425,1.843,1.841,1.8428,1.8423,1.8432,1.8418,1.8413,1.8412,1.8407,1.8411,1.846,1.8502,1.8417,1.8419,1.8589,1.8594,1.8598,1.8677,0,0,0,0,0,0,1.8396,1.8404,1.8433,1.8426,1.8432,1.8497,1.8431,1.8426,1.8437,1.843,1.8429,1.8426,1.8405,1.8456,1.8463,1.8504,1.8422,1.8586,1.8591,1.8597,1.8671,1.8684,1.8695,0,0,0,0,0,1.8394,1.8455,1.8435,1.8441,1.8467,1.8499,1.8502,1.8477,1.8441,1.8469,1.8459,1.8426,1.8496,1.8461,1.8469,1.8512,1.8583,1.859,1.8596,1.8665,1.8681,1.8695,0,0,0,0,0,0,1.8468,1.8454,1.8431,1.8492,1.8497,1.8488,1.8523,1.8494,1.851,1.8503,1.8471,1.8471,1.8525,1.8523,1.8485,1.8583,1.8533,1.8542,1.8583,1.8598,1.861,1.861,1.8424,0,0,0,0,0,1.8492,1.8519,1.8505,1.8561,1.8564,1.8543,1.8556,1.8536,1.854,1.8542,1.8536,1.8542,1.8565,1.8581,1.8602,1.867,1.8668,1.8703,1.8715,1.8725,1.8733,1.8768,1.8783,1.8622,1.8622,1.8622,0,0,1.8541,1.8536,1.8556,1.8575,1.8577,1.8606,1.8546,1.8579,1.86,1.8548,1.8593,1.8589,1.8593,1.8652,1.8677,1.8652,1.8777,1.8733,1.8741,1.8744,1.8776,1.8792,1.8805,1.8626,1.8626,1.8625,0,0,1.8645,1.8644,1.869,1.8692,1.8695,1.868,1.8691,1.8686,1.8681,1.8725,1.8686,1.8711,1.8752,1.8756,1.8764,1.8867,1.8837,1.8875,1.8939,1.8973,1.8986,1.8997,1.9034,1.9047,1.8883,1.8883,1.8883,0,1.8706,1.8748,1.8717,1.8753,1.8763,1.8715,1.8761,1.8765,1.8774,1.8782,1.8753,1.8802,1.8802,1.886,1.8885,1.8893,1.8905,1.8876,1.8986,1.8997,1.9007,1.9042,1.9056,1.8888,1.8887,1.8887,1.8886,0,1.8822,1.8852,1.8888,1.8897,1.8911,1.8952,1.8928,1.8945,1.8923,1.8911,1.8957,1.8955,1.8973,1.8986,1.8965,1.9041,1.9025,1.8992,1.8941,1.9027,1.906,1.9073,1.8894,1.8893,1.8891,1.889,0,0,1.8975,1.8966,1.898,1.8983,1.8981,1.9004,1.9042,1.9059,1.9075,1.9082,1.9114,1.9148,1.9117,1.9126,1.9105,1.9135,1.9217,1.9097,1.9097,1.912,1.93,1.9326,1.9342,1.9196,1.9198,1.92,1.93,0,1.9077,1.9141,1.9114,1.9181,1.9207,1.9161,1.9194,1.9197,1.9187,1.9208,1.9197,1.9222,1.9179,1.9183,1.9211,1.9201,1.9253,1.9193,1.9225,1.9227,1.9226,1.9358,1.9386,1.948,1.9312,1.9314,1.9316,0,1.9204,1.9216,1.9285,1.9278,1.9288,1.9318,1.9331,1.9352,1.9354,1.9344,1.9353,1.9325,1.9362,1.931,1.936,1.932,1.9332,1.9328,1.9331,1.9334,1.9277,1.9365,1.9509,1.9523,1.9335,1.9334,1.9332,0,1.9309,1.9342,1.9387,1.9391,1.9384,1.9406,1.9404,1.9403,1.9415,1.9426,1.9433,1.9449,1.9458,1.9471,1.9448,1.9412,1.9502,1.9448,1.9495,1.9496,1.9516,1.9516,1.9665,1.9523,1.9523,1.9523,1.9522,0,1.9425,1.9469,1.9434,1.9462,1.951,1.9478,1.9527,1.952,1.9519,1.9545,1.9506,1.9531,1.9499,1.9521,1.9503,1.9547,1.9551,1.9545,1.954,1.9549,1.955,1.9556,1.9549,1.9526,1.9525,1.9525,1.9524,0,1.9551,1.9529,1.9575,1.9563,1.9561,1.9597,1.9587,1.9613,1.9599,1.9632,1.9638,1.9617,1.9641,1.9619,1.9642,1.963,1.9689,1.9674,1.9688,1.9684,1.9732,1.9728,1.9892,1.9911,1.9756,1.9758,1.9759,0,1.9627,1.9659,1.9651,1.9665,1.9665,1.9688,1.9699,1.9669,1.9682,1.9686,1.9711,1.9731,1.9746,1.9786,1.9773,1.979,1.9776,1.9832,1.9779,1.9786,1.9777,1.9776,1.9779,1.9843,1.9845,1.9847,1.9848,0,1.9764,1.9751,1.9768,1.9782,1.9796,1.9805,1.9812,1.9825,1.9794,1.9811,1.9834,1.9846,1.9868,1.9889,1.9902,1.9899,1.9869,1.9864,1.9876,1.9886,1.9893,1.989,1.9718,1.9861,1.986,1.9859,1.9858,1.9858,1.9867,1.9893,1.9891,1.9912,1.9913,1.9919,1.9942,1.9931,1.9949,1.9965,1.9946,1.9974,1.9974,1.9988,1.9989,2.0011,1.9988,2.0005,2.001,2.0014,2.0021,1.9889,2.0014,2.0013,2.0013,2.0013,2.0012,0,2.0002,1.9998,2.0017,2.0026,2.0042,2.001,2.0015,2.0031,2.0056,2.0058,2.0073,2.01,2.0119,2.0107,2.0123,2.0143,2.013,2.0149,2.0147,2.0147,2.0041,2.003,2.016,2.016,2.016,2.0159,2.0159,2.0159,2.0074,2.0117,2.0104,2.0147,2.0142,2.017,2.0175,2.0181,2.0182,2.0213,2.0229,2.022,2.0216,2.0232,2.0248,2.0244,2.0252,2.0277,2.0268,2.0169,2.0155,2.0141,2.013,2.0279,2.0279,2.0372,2.0373,2.0373]}]]